www.pogodaiklimat.ru

Погода и климат >> Архив погоды >> Дания >> Мыс Sletterhage


ПОГОДА на Мысе Sletterhage

  • Прогноз погоды на Мысе Sletterhage
  • Монитор погоды на Мысе Sletterhage

АРХИВ ПОГОДЫ на Мысе Sletterhage

Время (UTC), дата Ветер
(напр.,м/с)
 
Видим.   Явления Облачность Т
(С)
Тd
(С)
f
(%)
Тe
(С)
Тes
(С)
Комфортность P
(гПа)
Po
(гПа)
Тmin
(С)
Tmax
(С)
R
(мм)
R24
(мм)
S
(см)
19 15.08 Ю 3 н/о н/о +17.2 +16.2 94 +17 +17 1006.4 1005.7
20 15.08 Ю 3 н/о н/о +17.1 +16.1 94 +17 +17 1006.7 1006.0
21 15.08 Ю 2 н/о н/о +16.8 +16.0 95 +17 +17 1006.8 1006.1
22 15.08 ЮЗ 3 н/о н/о +17.0 +16.3 96 +17 +17 1007.0 1006.3
23 15.08 З 3 н/о н/о +16.5 +15.7 95 +16 +16 1007.6 1006.9
00 16.08 З 6 н/о н/о +16.4 +15.4 94 +15 +15 1007.9 1007.2
01 16.08 З 6 н/о н/о +16.4 +14.9 91 +15 +15 1008.0 1007.3
02 16.08 З 7 н/о н/о +16.3 +14.6 90 +15 +15 1008.5 1007.8
03 16.08 З 6 н/о н/о +15.7 +13.9 89 +14 +14 1008.7 1008.0
04 16.08 З 5 н/о н/о +15.6 +14.0 90 +14 +14 1009.2 1008.5
05 16.08 ЮЗ 4 н/о н/о +15.0 +14.1 94 +14 +14 1009.7 1009.0
06 16.08 З 5 н/о н/о +15.8 +14.2 90 +15 +15 1010.4 1009.7 +15.0 +17.3
07 16.08 З 5 н/о н/о +15.1 +14.3 95 +14 +14 1010.8 1010.1
08 16.08 З 5 н/о н/о +16.0 +13.9 87 +15 +15 1011.2 1010.5
09 16.08 З 7 н/о н/о +16.6 +12.8 78 +15 +15 1011.5 1010.8
10 16.08 СЗ 4 н/о н/о +16.7 +13.5 81 +16 +16 1011.8 1011.1
11 16.08 З 5 н/о н/о +17.1 +12.9 76 +17 +17 1012.0 1011.3
12 16.08 СЗ 6
{11}
н/о н/о +17.0 +12.1 73 +16 +16 1012.1 1011.4
13 16.08 СЗ 7 н/о н/о +17.3 +12.2 72 +16 +16 1012.3 1011.6
14 16.08 СЗ 3 н/о н/о +17.5 +11.2 67 +17 +17 1012.1 1011.4
15 16.08 З 1 н/о н/о +17.9 +12.1 69 +20 +20 1011.9 1011.3
16 16.08 З 3 н/о н/о +18.3 +10.9 62 +19 +19 1011.8 1011.1
17 16.08 З 4 н/о н/о +18.7 +9.9 57 +19 +19 1011.7 1011.0
18 16.08 З 5 н/о н/о +17.6 +9.3 58 +17 +17 1011.8 1011.1 +14.6 +18.8
19 16.08 ЮЗ 7 н/о н/о +17.4 +10.4 63 +17 +17 1012.0 1011.3
20 16.08 ЮЗ 6 н/о н/о +17.2 +11.1 67 +16 +16 1011.8 1011.1
21 16.08 Ю 4 н/о н/о +17.2 +11.9 71 +17 +17 1011.4 1010.7
22 16.08 Ю 4 н/о н/о +16.8 +12.6 76 +16 +16 1010.7 1010.0
23 16.08 Ю 5 н/о н/о +16.8 +12.6 76 +16 +16 1010.1 1009.4
00 17.08 Ю 6 н/о н/о +17.3 +13.4 78 +17 +17 1009.3 1008.6
01 17.08 Ю 6 н/о н/о +17.4 +14.0 80 +17 +17 1008.4 1007.7
02 17.08 Ю 6 н/о н/о +17.7 +14.1 79 +17 +17 1007.4 1006.7
03 17.08 Ю 7 н/о н/о +17.7 +14.4 81 +17 +17 1007.0 1006.3
04 17.08 Ю 7 н/о н/о +17.0 +14.4 85 +16 +16 1006.7 1006.0
05 17.08 Ю 8 н/о н/о +16.3 +14.7 90 +15 +15 1006.3 1005.6
06 17.08 Ю 6
{12}
н/о н/о +16.1 +14.8 92 +15 +15 1005.7 1005.0 +15.8 +18.2
07 17.08 Ю 7 н/о н/о +15.9 +14.7 93 +14 +14 1005.3 1004.6
08 17.08 Ю 7 н/о н/о +16.3 +14.8 91 +15 +15 1004.9 1004.2
09 17.08 Ю 8 н/о н/о +16.3 +15.0 92 +15 +15 1004.5 1003.8
10 17.08 Ю 7 н/о н/о +16.3 +15.5 95 +15 +15 1004.3 1003.6
11 17.08 Ю 8 н/о н/о +16.4 +15.5 94 +15 +15 1004.0 1003.3
12 17.08 Ю 7
{12}
н/о н/о +16.9 +15.7 93 +16 +16 1004.0 1003.3
13 17.08 Ю 5 н/о н/о +17.3 +15.8 91 +17 +17 1004.1 1003.4
14 17.08 Ю 5 н/о н/о +18.0 +16.1 89 +18 +18 1004.0 1003.3
15 17.08 ЮЗ 7 н/о н/о +17.6 +16.2 91 +17 +17 1004.3 1003.6
16 17.08 Ю 6 н/о н/о +17.7 +15.2 85 +17 +17 1004.3 1003.6
17 17.08 Ю 4 н/о н/о +17.5 +15.5 88 +17 +17 1004.3 1003.6
18 17.08 Ю 5 н/о н/о +17.4 +15.9 91 +17 +17 1004.4 1003.7 +15.7 +18.1
19 17.08 ЮЗ 6 н/о н/о +17.4 +16.1 92 +17 +17 1004.6 1003.9
20 17.08 ЮЗ 5 н/о н/о +17.3 +15.2 87 +17 +17 1004.7 1004.0
21 17.08 ЮЗ 4 н/о н/о +16.9 +14.8 87 +17 +17 1004.7 1004.0
22 17.08 ЮЗ 4 н/о н/о +16.6 +14.4 87 +16 +16 1005.2 1004.5
23 17.08 ЮЗ 4 н/о н/о +16.4 +14.3 87 +16 +16 1005.2 1004.5
00 18.08 ЮЗ 4 н/о н/о +16.4 +14.5 89 +16 +16 1005.5 1004.8
01 18.08 ЮЗ 3 н/о н/о +16.4 +14.4 88 +16 +16 1005.0 1004.3
02 18.08 ЮЗ 3 н/о н/о +16.3 +14.7 90 +16 +16 1004.9 1004.2
03 18.08 ЮЗ 4 н/о н/о +15.8 +14.5 92 +15 +15 1004.6 1003.9
04 18.08 ЮЗ 3 н/о н/о +15.7 +14.4 92 +15 +15 1004.2 1003.5
05 18.08 ЮЗ 3 н/о н/о +15.7 +14.6 93 +15 +15 1004.5 1003.8
06 18.08 Ю 2 н/о н/о +15.7 +14.5 93 +16 +16 1004.3 1003.6 +15.6 +17.5
07 18.08 Ю 3 н/о н/о +16.3 +15.2 93 +16 +16 1004.5 1003.8
08 18.08 Ю 3 н/о н/о +16.6 +15.3 92 +16 +16 1004.2 1003.5
09 18.08 ЮВ 3 н/о н/о +16.6 +15.6 94 +16 +16 1004.0 1003.3
10 18.08 ЮВ 5 н/о н/о +17.0 +15.3 90 +16 +16 1003.8 1003.1
11 18.08 ЮВ 3 н/о н/о +17.3 +15.0 86 +17 +17 1003.7 1003.0
12 18.08 Ю 4 н/о н/о +16.8 +15.7 93 +16 +16 1003.7 1003.0
13 18.08 Ю 4 н/о н/о +17.0 +15.0 88 +16 +16 1003.3 1002.6
14 18.08 Ю 5 н/о н/о +16.5 +15.1 91 +16 +16 1003.3 1002.6
15 18.08 Ю 6 н/о н/о +15.4 +14.1 92 +14 +14 1003.4 1002.7
16 18.08 ЮЗ 7 н/о н/о +15.7 +14.1 90 +14 +14 1003.2 1002.5
17 18.08 ЮЗ 6 н/о н/о +16.3 +13.4 83 +15 +15 1003.0 1002.3
18 18.08 ЮЗ 8 н/о н/о +16.1 +14.1 88 +14 +14 1003.4 1002.7 +15.2 +17.4
19 18.08 ЮЗ 7 н/о н/о +16.2 +14.4 89 +15 +15 1003.7 1003.0
20 18.08 ЮЗ 7 н/о н/о +16.1 +14.3 89 +15 +15 1003.9 1003.2
21 18.08 З 6 н/о н/о +15.9 +14.2 90 +14 +14 1004.6 1003.9
22 18.08 З 6 н/о н/о +15.6 +13.6 88 +14 +14 1005.3 1004.6
23 18.08 З 6 н/о н/о +15.6 +13.4 87 +14 +14 1005.6 1005.0
00 19.08 ЮЗ 7 н/о н/о +15.6 +13.5 87 +14 +14 1006.1 1005.4
01 19.08 ЮЗ 7 н/о н/о +15.4 +13.2 87 +14 +14 1006.6 1005.9
02 19.08 ЮЗ 6 н/о н/о +15.8 +13.3 85 +14 +14 1006.6 1005.9
03 19.08 ЮЗ 7 н/о н/о +15.9 +14.2 90 +14 +14 1006.8 1006.1
04 19.08 ЮЗ 8 н/о н/о +16.1 +14.4 90 +14 +14 1007.0 1006.3
05 19.08 ЮЗ 7 н/о н/о +16.1 +14.7 91 +15 +15 1007.5 1006.8
06 19.08 Ю 6 н/о н/о +16.3 +14.7 90 +15 +15 1007.8 1007.1 +15.3 +16.3
07 19.08 ЮЗ 9 н/о н/о +16.3 +14.7 90 +14 +14 1008.1 1007.4
08 19.08 Ю 6 н/о н/о +16.2 +14.1 87 +15 +15 1008.3 1007.6
09 19.08 ЮЗ 10 н/о н/о +16.3 +12.8 80 +14 +14 1008.6 1007.9
10 19.08 ЮЗ 9 н/о н/о +16.7 +13.9 84 +15 +15 1008.9 1008.3
11 19.08 ЮЗ 8 н/о н/о +16.9 +13.9 82 +16 +16 1009.3 1008.6
12 19.08 ЮЗ 9 н/о н/о +17.1 +13.5 79 +16 +16 1009.9 1009.2
13 19.08 ЮЗ 10 н/о н/о +17.1 +14.3 84 +16 +16 1010.3 1009.6
14 19.08 З 4
{21}
н/о н/о +16.6 +14.1 85 +16 +16 1011.4 1010.7
15 19.08 З 5 н/о н/о +16.9 +14.0 83 +16 +16 1011.9 1011.2
16 19.08 З 4 н/о н/о +18.3 +13.6 74 +19 +19 1012.0 1011.3
17 19.08 З 5 н/о н/о +18.4 +13.4 73 +19 +19 1012.5 1011.8
18 19.08 ЮЗ 6
{21}
н/о н/о +17.4 +13.1 76 +17 +17 1012.8 1012.1 +14.6 +18.5
19 19.08 ЮЗ 8 н/о н/о +16.6 +12.8 78 +15 +15 1013.5 1012.8
20 19.08 ЮЗ 8 н/о н/о +16.2 +13.6 85 +15 +15 1013.9 1013.2
21 19.08 ЮЗ 7 н/о н/о +16.4 +13.7 84 +15 +15 1014.3 1013.6
22 19.08 ЮЗ 7 н/о н/о +16.2 +13.6 85 +15 +15 1014.6 1013.9
23 19.08 ЮЗ 8 н/о н/о +15.8 +13.4 86 +14 +14 1014.8 1014.1
00 20.08 ЮЗ 7 н/о н/о +15.5 +13.5 88 +14 +14 1015.2 1014.5
01 20.08 ЮЗ 7 н/о н/о +15.1 +13.2 88 +13 +13 1015.4 1014.7
02 20.08 ЮЗ 6 н/о н/о +15.3 +13.2 87 +14 +14 1015.7 1015.0
03 20.08 ЮЗ 6 н/о н/о +15.2 +13.3 88 +14 +14 1015.8 1015.1
04 20.08 ЮЗ 5 н/о н/о +15.4 +13.4 88 +14 +14 1016.2 1015.5
05 20.08 ЮЗ 5 н/о н/о +15.3 +13.4 88 +14 +14 1016.3 1015.6
06 20.08 ЮЗ 5 н/о н/о +15.5 +12.9 84 +14 +14 1016.5 1015.8 +15.0 +17.4
07 20.08 ЮЗ 6 н/о н/о +15.7 +13.6 87 +14 +14 1017.0 1016.2
08 20.08 ЮЗ 5 н/о н/о +15.9 +13.4 85 +15 +15 1017.4 1016.7
09 20.08 ЮЗ 5 н/о н/о +16.2 +13.3 83 +15 +15 1017.7 1017.0
10 20.08 Ю 4 н/о н/о +17.0 +13.8 81 +16 +16 1017.9 1017.2
11 20.08 ЮЗ 6 н/о н/о +17.1 +13.7 80 +16 +16 1018.2 1017.5
12 20.08 ЮЗ 6 н/о н/о +16.6 +10.7 68 +16 +16 1018.2 1017.5
13 20.08 З 5 н/о н/о +18.9 +11.9 64 +19 +19 1018.6 1017.9
14 20.08 З 5 н/о н/о +19.5 +11.4 59 +20 +20 1018.7 1018.0
15 20.08 З 7 н/о н/о +18.7 +12.0 65 +19 +19 1019.2 1018.5
16 20.08 З 8 н/о н/о +18.3 +12.2 68 +18 +18 1019.8 1019.1
17 20.08 З 5 н/о н/о +18.3 +11.9 66 +18 +18 1020.1 1019.4
18 20.08 З 3 н/о н/о +17.6 +13.4 76 +18 +18 1020.5 1019.8 +15.0 +19.9
19 20.08 З 4 н/о н/о +16.9 +11.6 71 +17 +17 1021.0 1020.3
20 20.08 З 5 н/о н/о +16.5 +11.5 72 +16 +16 1021.5 1020.8
21 20.08 З 4 н/о н/о +15.9 +11.7 76 +15 +15 1021.7 1021.0
22 20.08 ЮЗ 4 н/о н/о +15.6 +11.8 78 +15 +15 1021.8 1021.1
23 20.08 ЮЗ 6 н/о н/о +15.6 +12.2 80 +14 +14 1022.1 1021.4
00 21.08 ЮЗ 6 н/о н/о +15.4 +12.1 81 +14 +14 1022.2 1021.5
01 21.08 ЮЗ 6 н/о н/о +15.1 +12.6 85 +14 +14 1022.3 1021.6
02 21.08 З 5 н/о н/о +14.7 +12.4 86 +13 +13 1022.5 1021.8
03 21.08 З 7 н/о н/о +14.0 +12.0 88 +12 +12 1022.8 1022.1
04 21.08 З 4 н/о н/о +13.9 +12.0 88 +12 +12 1023.1 1022.4
05 21.08 З 5 н/о н/о +13.8 +12.3 91 +12 +12 1023.7 1023.0
06 21.08 З 5 н/о н/о +14.4 +11.2 81 +13 +13 1024.2 1023.5 +13.6 +17.6
07 21.08 З 6 н/о н/о +15.0 +10.7 75 +13 +13 1024.7 1023.9
08 21.08 З 6 н/о н/о +15.8 +10.7 72 +14 +14 1025.1 1024.4
09 21.08 З 6 н/о н/о +16.6 +9.2 62 +16 +16 1025.4 1024.7
10 21.08 З 6 н/о н/о +17.3 +9.8 61 +17 +17 1025.6 1024.9
11 21.08 З 5 н/о н/о +17.3 +9.6 61 +17 +17 1025.8 1025.1
12 21.08 З 6 н/о н/о +17.1 +9.8 62 +16 +16 1025.8 1025.1
13 21.08 З 4 н/о н/о +17.7 +9.8 60 +17 +17 1025.8 1025.0
14 21.08 З 6 н/о н/о +18.7 +8.8 53 +19 +19 1025.8 1025.1
15 21.08 З 5 н/о н/о +18.2 +10.2 60 +18 +18 1026.0 1025.3
16 21.08 З 3 н/о н/о +18.6 +11.4 63 +19 +19 1026.1 1025.4
17 21.08 З 3 н/о н/о +18.3 +11.8 66 +19 +19 1026.1 1025.4
18 21.08 З 3 н/о н/о +17.7 +12.0 69 +18 +18 1026.1 1025.4 +14.4 +19.0
19 21.08 ЮЗ 3 н/о н/о +17.3 +12.7 74 +17 +17 1026.3 1025.6
20 21.08 ЮЗ 4 н/о н/о +17.0 +12.3 74 +17 +17 1026.6 1025.9
21 21.08 З 4 н/о н/о +16.2 +12.3 78 +16 +16 1026.8 1026.1
22 21.08 З 4 н/о н/о +15.5 +12.0 80 +15 +15 1026.7 1026.0
23 21.08 ЮЗ 4 н/о н/о +15.7 +12.4 81 +15 +15 1026.9 1026.2
00 22.08 ЮЗ 5 н/о н/о +15.9 +12.6 81 +15 +15 1026.6 1025.9
01 22.08 ЮЗ 5 н/о н/о +16.2 +13.2 82 +15 +15 1026.6 1025.9
02 22.08 ЮЗ 5 н/о н/о +16.2 +13.6 85 +15 +15 1026.4 1025.7
03 22.08 ЮЗ 6 н/о н/о +15.9 +13.4 85 +14 +14 1026.2 1025.5
04 22.08 ЮЗ 6 н/о н/о +15.8 +13.6 87 +14 +14 1025.9 1025.2
05 22.08 Ю 4 н/о н/о +15.8 +12.4 80 +15 +15 1025.8 1025.1
06 22.08 Ю 4 н/о н/о +16.5 +12.4 77 +16 +16 1025.7 1025.0 +15.4 +17.7
07 22.08 Ю 5 н/о н/о +16.8 +13.3 80 +16 +16 1025.6 1024.9
08 22.08 Ю 5 н/о н/о +17.2 +13.8 80 +17 +17 1025.5 1024.8
09 22.08 Ю 5 н/о н/о +17.6 +14.0 79 +17 +17 1025.4 1024.7
10 22.08 Ю 5 н/о н/о +18.1 +14.1 77 +18 +18 1025.1 1024.4
11 22.08 Ю 4 н/о н/о +18.6 +13.5 72 +19 +19 1024.6 1023.9
12 22.08 Ю 4 н/о н/о +18.6 +13.1 70 +19 +19 1023.7 1023.0
13 22.08 Ю 4 н/о н/о +18.9 +13.9 73 +20 +20 1023.2 1022.5
14 22.08 Ю 4 н/о н/о +19.6 +13.2 67 +21 +21 комфорт 1022.8 1022.2
15 22.08 Ю 5 н/о н/о +19.5 +12.8 65 +21 +21 комфорт 1022.7 1022.0
16 22.08 З 5 н/о н/о +19.4 +12.2 63 +20 +20 1022.5 1021.8
17 22.08 З 6 н/о н/о +19.2 +12.0 63 +20 +20 1022.6 1021.9
18 22.08 З 6 н/о н/о +18.9 +11.9 64 +19 +19 1022.6 1021.9 +16.4 +19.8
19 22.08 З 4 н/о н/о +18.2 +13.4 74 +18 +18 1023.0 1022.3
20 22.08 ЮЗ 4 н/о н/о +17.9 +12.8 72 +18 +18 1023.2 1022.5

 

Местоположение метеостанции Мыс Sletterhage (Дания): широта 56.10 долгота 10.51 высота над уровнем моря 6 м.

В архиве по умолчанию представлена погода на Мысе Sletterhage за последнюю неделю. Архивные данные за месяц целиком и за предыдущие месяцы, начиная с января 2011 года, Вы можете получить, выбрав интересующий диапазон дат из раскрывающегося списка и нажав кнопку "Ввод!".


*Определитесь, кто Вы:
робот инопланетянин человек

Внимание! Время в таблицах - всемирное. Для получения местного времени необходимо прибавить поправку, которая равна 1 ч.

Смотрите также архив погоды в соседних городах и на ближайших метеорологических станциях:

Погода в Орхусе (Дания) (24 км)
Погода в Тирструпе (Дания) (26 км)
Погода на Мысе Roesnaes (Дания) (45 км)
Погода в Гнибене (Дания) (49 км)
Погода в Хорсенсе (Дания) (52 км)
Погода в Хальде V (Дания) (58 км)
Погода в Оденсе (Дания) (70 км)
Погода в Фоулуме (Дания) (73 км)
Погода в Хольбеке (Дания) (79 км)
Погода в Исенваде (Дания) (83 км)

Пояснения к столбцам:

Ветер - указаны скорость ветра в м/с - средняя за 10 мин, порывы в срок и между сроками (в фигурных скобках) и направление, откуда дует ветер: С - северный, СВ - северо-восточный, В - восточный, ЮВ - юго-восточный, Ю - южный, ЮЗ - юго-западный, З - западный, СЗ - северо-западный.
Видимость - горизонтальная дальность видимости в метрах или километрах. При видимости от 1 до 10 км при отсутствии осадков обычно наблюдается дымка, при ухудшении видимости до 1 км и менее - туман. В сухую погоду видимость может ухудшаться дымом, пылью или мглою.
Явления - указаны атмосферные явления, наблюдавшиеся в срок или в последний час перед сроком; фигурными скобками обозначены явления, наблюдавшиеся между сроками (за 1-3 часа до срока); квадратными скобками обозначены град или гололедные отложения с указанием их диаметра в мм.
Облачность - указаны через наклонную черту общая и нижняя облачность в баллах и высота нижней границы облаков в метрах; квадратными скобками обозначены формы облаков: Ci - перистые, Cs - перисто-слоистые, Cc - перисто-кучевые, Ac - высококучевые, As - высокослоистые, Sc - слоисто-кучевые, Ns - слоисто-дождевые, Cu - кучевые, Cb - кучево-дождевые. Подробнее классификацию облаков см. в Атласе облаков (PDF).
T - Температура воздуха - температура, измеренная на высоте 2 м над землей.
Td - Температура точки росы - температура, при понижении до которой содержащийся в воздухе водяной пар достигнет насыщения.
f - Относительная влажность воздуха - влажноcть воздуха, измеренная на высоте 2 м над землей.
Te - Эффективная температура - температура, которую ощущает одетый по сезону человек в тени. Характеристика душности погоды. При расчете учитывается влияние влажности воздуха и скорости ветра на теплоощущения человека.
Tes - Эффективная температура на солнце - температура, которую ощущает человек, с поправкой на солнечный нагрев. Характеристика знойности погоды. Зависит от высоты солнца над горизонтом, облачности и скорости ветра. Ночью, в пасмурную погоду, а также при ветре 12 м/с и более поправка равна нулю.
P - Атмосферное давление - приведенное к уровню моря атмосферное давление.
Po - Атмосферное давление - измеренное на уровне метеостанции атмосферное давление.
Tmin - Минимальная температура - минимум температуры воздуха на высоте 2 м над землей.
Tmax - Максимальная температура - максимум температуры воздуха на высоте 2 м над землей.
R - Количество осадков - Количество выпавших осадков за период времени, мм. При наведении курсора мыши на число - период времени, за который выпало указанное количество осадков.
R24 - Количество осадков - Количество выпавших осадков за 24 часа, мм.
S - Снежный покров - Высота снежного покрова, см. При наведении курсора мыши на число - состояние снежного покрова и степень покрытия местности в баллах.